Regional Weather Roundup
Issued by NWS Little Rock, AR

Home | Current Version | Previous Version | Text Only | Print | Product List | Glossary Off
Versions: 1 2 3 4 5 6 7 8 9 10 11 12 13 14 15 16 17 18 19 20 21 22 23 24 25 26 27 28 29 30 31 32 33 34 35 36 37 38 39 40 41 42 43 44 45 46 47 48 49 50

000
ASUS44 KLZK 271505
RWRLZK

WEATHER ROUNDUP FOR ARKANSAS
NATIONAL WEATHER SERVICE LITTLE ROCK AR
1000 AM CDT THU AUG 27 2015

NOTE: "FAIR" INDICATES FEW OR NO CLOUDS BELOW 12,000 FEET WITH NO
SIGNIFICANT WEATHER AND/OR OBSTRUCTIONS TO VISIBILITY.

ARZ001-003-010-029-271600-
NORTHWEST ARKANSAS

CITY           SKY/WX    TMP DP  RH WIND       PRES   REMARKS
FAYETTEVILLE   CLOUDY    67  65  93 E3        30.15R
FORT SMITH     CLOUDY    71  63  75 E10       30.12S
BENTONVILLE    CLOUDY    66  59  77 SE5       30.15S
ROGERS         CLOUDY    67  62  84 SE7       30.16R
SILOAM SPGS    CLOUDY    64  57  77 NW8G23    30.16R
HIGHFILL       CLOUDY    67  64  90 CALM      30.15
SPRINGDALE     PTSUNNY   68  61  77 MISG      30.17R
$$

ARZ004-005-016-271600-
NORTH CENTRAL ARKANSAS

CITY           SKY/WX    TMP DP  RH WIND       PRES   REMARKS
BATESVILLE     SUNNY     70  61  73 CALM      30.16F
FLIPPIN        SUNNY     70  57  64 E6        30.14F
MTN HOME       SUNNY     71  59  65 SE6       30.16F
$$

ARZ040-041-271600-
WEST CENTRAL ARKANSAS

CITY           SKY/WX    TMP DP  RH WIND       PRES   REMARKS
MENA           MOSUNNY   73  63  68 CALM      30.16F
MOUNT IDA      SUNNY     74  60  61 SE3       30.13S
$$

ARZ009-017-025-026-028-271600-
NORTHEAST ARKANSAS

CITY           SKY/WX    TMP DP  RH WIND       PRES   REMARKS
JONESBORO      SUNNY     71  62  73 E7        30.13F
NEWPORT        SUNNY     71  62  73 CALM      30.16S
WALNUT RIDGE   SUNNY     70  61  73 NE5       30.15R
BLYTHEVILLE    SUNNY     74  63  68 E9        30.13F
$$

ARZ022-023-033-042-044-271600-
CENTRAL ARKANSAS

CITY           SKY/WX    TMP DP  RH WIND       PRES   REMARKS
LITTLE ROCK    SUNNY     77  59  53 NE6       30.14S
N LITTLE ROCK  SUNNY     77  61  58 E8        30.14S
JACKSONVILLE   SUNNY     74  60  60 E6        30.14R
SEARCY         SUNNY     74  60  61 VRB5      30.17R
HOT SPRINGS    SUNNY     75  58  55 VRB5      30.15S
RUSSELLVILLE   SUNNY     73  60  63 VRB3      30.15S
$$

ARZ036-271600-
EAST ARKANSAS

CITY           SKY/WX    TMP DP  RH WIND       PRES   REMARKS
WEST MEMPHIS   SUNNY     75  60  59 NE9       30.14R
$$

ARZ050-053-066-070-073-271600-
SOUTHWEST ARKANSAS

CITY           SKY/WX    TMP DP  RH WIND       PRES   REMARKS
ARKADELPHIA    FAIR      77  62  59 VRB3      30.15R
CAMDEN         SUNNY     75  59  57 CALM      30.13F
TEXARKANA      SUNNY     77  58  51 VRB6      30.13S
EL DORADO      SUNNY     75  59  57 SE5       30.12S
DE QUEEN       PTSUNNY   76  61  59 E6        30.12S
$$

ARZ056-057-069-271600-
SOUTHEAST ARKANSAS

CITY           SKY/WX    TMP DP  RH WIND       PRES   REMARKS
PINE BLUFF     SUNNY     74  61  63 VRB5      30.12F
STUTTGART      SUNNY     72  61  68 NE8       30.12F
MONTICELLO     SUNNY     76  61  59 VRB5      30.12R

$$





USA.gov is the U.S. government's official web portal to all federal, state and local government web resources and services.